This is the latest recevied weather packets stored in our database for station/object N4NVD-13. If no packets are shown the sender has not sent any weather packets the latest 10 day(s).
| Time | Temp. | Humidity | Pressure | Rain* | Wind** | Luminosity | Snow |
|---|---|---|---|---|---|---|---|
| 1777571062 | 19.44° C | 99% | 1012 hPa | 0 mm | - | 15 W/m² | - |
| 1777570759 | 19.44° C | 99% | 1012.4 hPa | 0 mm | - | 22 W/m² | - |
| 1777570455 | 20° C | 99% | 1012.3 hPa | 0 mm | - | 62 W/m² | - |
| 1777570151 | 20° C | 99% | 1012.3 hPa | 0 mm | - | 61 W/m² | - |
| 1777569848 | 20° C | 99% | 1012.3 hPa | 0 mm | - | 127 W/m² | - |
| 1777569544 | 19.44° C | 99% | 1012.6 hPa | 0 mm | - | 69 W/m² | - |
| 1777569240 | 19.44° C | 99% | 1012.6 hPa | 0 mm | - | 60 W/m² | - |
| 1777568936 | 19.44° C | 99% | 1012.4 hPa | 0 mm | - | 46 W/m² | - |
| 1777568633 | 19.44° C | 99% | 1012.6 hPa | 0 mm | - | 23 W/m² | - |
| 1777568330 | 19.44° C | 99% | 1012.2 hPa | 0 mm | - | 34 W/m² | - |
| 1777568026 | 19.44° C | 99% | 1012.4 hPa | 0 mm | - | 21 W/m² | - |
| 1777567723 | 19.44° C | 99% | 1012.5 hPa | 0 mm | - | 29 W/m² | - |
| 1777567420 | 19.44° C | 99% | 1012.1 hPa | 0 mm | - | 59 W/m² | - |
| 1777567118 | 19.44° C | 99% | 1011.8 hPa | 0 mm | - | 84 W/m² | - |
| 1777566816 | 19.44° C | 99% | 1011.5 hPa | 0 mm | - | 92 W/m² | - |
| 1777566513 | 18.89° C | 99% | 1011.4 hPa | 0 mm | - | 126 W/m² | - |
| 1777566211 | 19.44° C | 99% | 1011.8 hPa | 0 mm | - | 113 W/m² | - |
| 1777565907 | 19.44° C | 99% | 1011.5 hPa | 0 mm | - | 122 W/m² | - |
| 1777565603 | 18.89° C | 99% | 1011.4 hPa | 0 mm | - | 93 W/m² | - |
| 1777565300 | 18.89° C | 99% | 1011.5 hPa | 0 mm | - | 65 W/m² | - |
| 1777564995 | 18.89° C | 99% | 1011.5 hPa | 0 mm | - | 56 W/m² | - |
| 1777564691 | 18.89° C | 99% | 1011.7 hPa | 0 mm | - | 40 W/m² | - |
| 1777564386 | 18.89° C | 99% | 1012 hPa | 0 mm | - | 59 W/m² | - |
| 1777564083 | 19.44° C | 99% | 1012 hPa | 0 mm | - | 39 W/m² | - |
| 1777563779 | 19.44° C | 99% | 1011.8 hPa | 0 mm | - | 38 W/m² | - |
* Rain latest hour (hover to see other rain measurements)
** Current wind speed in m/s (hover to see current wind gust speed)